This demonstration page uses our WeatherBlox Daily Observations layout. Learn more.

Left ArrowRight Arrow

34.16533, -84.80231

Hourly Observations for June 14, 2019

Temp ( °F °C ) Dew Point ( °F °C ) Humidity (%) Winds ( mph kmh ) Pressure ( in mb ) Visibility ( mi km ) Precip ( " mm )
12:53 am 00:53 Clear 56 13.3 53 11.7 90 90 Calm 30.10 1019 10 16 0.00 0.00
1:53 am 01:53 Clear 55 12.8 53 11.7 93 93 Calm 30.11 1020 10 16 0.00 0.00
2:53 am 02:53 Clear 52 11.1 51 10.6 97 97 Calm 30.11 1020 10 16 0.00 0.00
3:53 am 03:53 Clear 52 11.1 51 10.6 97 97 Calm 30.11 1020 10 16 0.00 0.00
4:53 am 04:53 Clear 52 11.1 50 10 93 93 Calm 30.12 1020 10 16 0.00 0.00
5:53 am 05:53 Clear 50 10 49 9.4 96 96 Calm 30.15 1021 10 16 0.00 0.00
6:53 am 06:53 Sunny 52 11.1 50 10 93 93 Calm 30.16 1021 10 16 0.00 0.00
7:53 am 07:53 Sunny 57 13.9 53 11.7 87 87 Calm 30.18 1022 10 16 0.00 0.00
8:53 am 08:53 Sunny 63 17.2 53 11.7 70 70 Calm 30.19 1022 10 16 0.00 0.00
9:53 am 09:53 Sunny 68 20 52 11.1 57 57 N 5 7 30.19 1023 10 16 0.00 0.00
10:53 am 10:53 Sunny 72 22.2 47 8.3 41 41 NNE 5 7 30.20 1023 10 16 0.00 0.00
11:53 am 11:53 Sunny 73 22.8 45 7.2 37 37 NW 5 7 30.20 1023 10 16 0.00 0.00
12:53 pm 12:53 Sunny 75 23.9 47 8.3 37 37 Calm 30.19 1022 10 16 0.00 0.00
1:53 pm 13:53 Sunny 77 25 45 7.2 32 32 VRB 3 6 30.17 1022 10 16 0.00 0.00
2:53 pm 14:53 Sunny 78 25.6 46 7.8 32 32 ENE 6 9 30.15 1021 10 16 0.00 0.00
3:53 pm 15:53 Sunny 79 26.1 44 6.7 29 29 VRB 3 6 30.14 1021 10 16 0.00 0.00
4:53 pm 16:53 Sunny 80 26.7 46 7.8 30 30 undefined N/A 30.12 1020 10 16 0.00 0.00
5:53 pm 17:53 Sunny 80 26.7 47 8.3 31 31 VRB 3 6 30.11 1020 10 16 0.00 0.00
6:53 pm 18:53 Sunny 79 26.1 47 8.3 32 32 S 5 7 30.09 1019 10 16 0.00 0.00
7:53 pm 19:53 Sunny 75 23.9 49 9.4 40 40 Calm 30.09 1019 10 16 0.00 0.00
8:53 pm 20:53 Clear 66 18.9 56 13.3 70 70 SSE 3 6 30.09 1019 10 16 0.00 0.00
9:53 pm 21:53 Clear 62 16.7 55 12.8 78 78 Calm 30.10 1019 10 16 0.00 0.00
10:53 pm 22:53 Clear 61 16.1 54 12.2 78 78 Calm 30.13 1020 10 16 0.00 0.00
11:53 pm 23:53 Clear 58 14.4 54 12.2 87 87 Calm 30.14 1021 10 16 0.00 0.00

Powered by AerisWeather